Location: Castillon
(43.1358°N, 0.8654°E)
Time: 19:30:32
(UTC+00:00)

Okean-O - Pass Details

Date: 24 January 2021
Orbit: 638 x 641 km, 98.2° (Epoch: 28 February)

Event Time Altitude Azimuth Distance (km) Brightness Sun altitude
Rises 18:02:53 0° 147° (SSE) 2,934 5.8 -11.8°
Reaches altitude 10° 18:05:10 10° 140° (SE) 2,029 5.0 -12.2°
Maximum altitude 18:09:18 41° 70° (ENE) 941 3.0 -13.0°
Drops below altitude 10° 18:13:28 10° 1° (N) 2,043 5.1 -13.7°
Sets 18:15:46 0° 354° (N) 2,957 6.0 -14.1°
